Location: Bun Machan
(52.1403°N, 7.3744°W)
Time: 01:43:13
(UTC+00:00)

Resurs 1-4 Rocket - Pass Details

Date: 14 July 2020
Orbit: 800 x 814 km, 98.6° (Epoch: 11 August)

Event Time Altitude Azimuth Distance (km) Brightness Sun altitude
Rises 03:00:57 0° 12° (NNE) 3,352 6.7 -9.7°
Reaches altitude 10° 03:03:21 10° 7° (N) 2,415 5.7 -9.5°
Maximum altitude 03:08:28 49° 294° (WNW) 1,049 2.6 -9.0°
Enters shadow 03:13:26 11° 221° (SW) 2,349 3.8 -8.6°
